SR9NLI Weather Reports


Display with metric or nautical units.
time (UTC)temp
F
wind
direction
speed
MPH
gust
MPH
rain 1hr
in
rain 24hr
in
rain mn
in
humidity
%
barometer
mb
20260502152105 66 77 4.0 6.0 0.00 0.00 0.00 100 962.7
20260502151901 66 47 4.0 9.0 0.00 0.00 0.00 100 962.7
20260502151801 66 19 5.0 9.0 0.00 0.00 0.00 100 962.6
20260502151658 66 20 4.0 9.0 0.00 0.00 0.00 100 962.7
20260502151455 66 54 4.0 7.0 0.00 0.00 0.00 100 962.7
20260502151252 65 71 5.0 8.0 0.00 0.00 0.00 100 962.7
20260502151049 65 33 6.0 10.0 0.00 0.00 0.00 100 962.7
20260502150847 66 12 7.0 11.0 0.00 0.00 0.00 100 962.8
20260502150644 66 7 5.0 11.0 0.00 0.00 0.00 100 962.7
20260502150543 66 1 4.0 11.0 0.00 0.00 0.00 100 962.7
20260502150441 66 4 3.0 6.0 0.00 0.00 0.00 100 962.7
20260502150237 66 21 4.0 6.0 0.00 0.00 0.00 100 962.8
20260502140104 66 15 6.0 9.0 0.00 0.00 0.00 100 963.2
20260502130728 66 20 7.0 15.0 0.00 0.00 0.00 100 963.6
20260502130525 66 19 6.0 15.0 0.00 0.00 0.00 100 963.5
20260502130322 66 53 4.0 9.0 0.00 0.00 0.00 100 963.7
20260502130221 66 67 4.0 10.0 0.00 0.00 0.00 100 963.6
20260502130118 65 72 6.0 10.0 0.00 0.00 0.00 100 963.7
20260502123743 64 84 5.0 10.0 0.00 0.00 0.00 100 963.8
20260502123640 64 70 6.0 10.0 0.00 0.00 0.00 100 963.9
20260502123438 64 70 7.0 11.0 0.00 0.00 0.00 100 964.0
20260502123234 65 50 6.0 11.0 0.00 0.00 0.00 100 963.9
20260502123133 65 62 4.0 11.0 0.00 0.00 0.00 100 963.9
20260502123028 65 82 4.0 11.0 0.00 0.00 0.00 100 963.9
20260502122825 64 107 3.0 7.0 0.00 0.00 0.00 100 963.9
20260502122621 64 49 4.0 8.0 0.00 0.00 0.00 100 964.0
20260502122520 64 34 5.0 11.0 0.00 0.00 0.00 100 964.1
20260502122418 64 27 6.0 11.0 0.00 0.00 0.00 100 964.1
20260502122214 65 7 7.0 11.0 0.00 0.00 0.00 100 964.0
20260502122010 65 12 5.0 11.0 0.00 0.00 0.00 100 964.1
20260502121807 65 38 4.0 7.0 0.00 0.00 0.00 100 964.1
20260502121604 65 91 4.0 8.0 0.00 0.00 0.00 100 964.1
20260502121401 66 129 3.0 8.0 0.00 0.00 0.00 100 964.2
20260502121259 66 137 3.0 8.0 0.00 0.00 0.00 100 964.1
20260502121157 67 0 2.0 6.0 0.00 0.00 0.00 100 964.2
20260502120954 66 38 2.0 6.0 0.00 0.00 0.00 100 964.2
20260502120750 66 65 3.0 7.0 0.00 0.00 0.00 100 964.2
20260502120650 66 110 3.0 7.0 0.00 0.00 0.00 100 964.3
20260502120548 65 116 3.0 8.0 0.00 0.00 0.00 100 964.2
20260502120345 64 116 5.0 9.0 0.00 0.00 0.00 100 964.2
20260502120141 64 109 4.0 9.0 0.00 0.00 0.00 100 964.3
20260502115735 64 51 6.0 11.0 0.00 0.00 0.00 100 964.3
20260502115532 66 61 4.0 10.0 0.00 0.00 0.00 100 964.4
20260502115432 65 76 3.0 9.0 0.00 0.00 0.00 100 964.4
20260502115330 66 0 2.0 6.0 0.00 0.00 0.00 100 964.5
20260502115126 66 109 2.0 7.0 0.00 0.00 0.00 100 964.3
20260502114923 65 123 4.0 11.0 0.00 0.00 0.00 100 964.4
20260502114823 65 126 5.0 11.0 0.00 0.00 0.00 100 964.4
20260502114721 65 128 5.0 11.0 0.00 0.00 0.00 100 964.5
20260502114518 65 119 4.0 10.0 0.00 0.00 0.00 100 964.4
20260502114315 64 77 4.0 9.0 0.00 0.00 0.00 100 964.5
20260502114214 64 67 5.0 9.0 0.00 0.00 0.00 100 964.6
20260502114112 64 55 6.0 10.0 0.00 0.00 0.00 100 964.5
20260502113908 64 26 6.0 10.0 0.00 0.00 0.00 100 964.5
20260502113704 64 42 6.0 11.0 0.00 0.00 0.00 100 964.5
20260502113604 64 58 6.0 11.0 0.00 0.00 0.00 100 964.4
20260502113501 64 68 6.0 11.0 0.00 0.00 0.00 100 964.5
20260502113258 64 34 5.0 10.0 0.00 0.00 0.00 100 964.6
20260502113055 64 354 4.0 9.0 0.00 0.00 0.00 100 964.5
20260502112954 64 347 3.0 9.0 0.00 0.00 0.00 100 964.6
20260502112848 65 333 2.0 9.0 0.00 0.00 0.00 100 964.6
20260502112645 65 0 2.0 5.0 0.00 0.00 0.00 100 964.5
20260502112442 64 332 4.0 9.0 0.00 0.00 0.00 100 964.6
20260502112238 63 327 4.0 9.0 0.00 0.00 0.00 100 964.6
20260502112036 64 45 4.0 8.0 0.00 0.00 0.00 100 964.7
20260502111833 63 14 6.0 9.0 0.00 0.00 0.00 100 964.7
20260502111732 64 8 5.0 9.0 0.00 0.00 0.00 100 964.6
20260502111630 64 19 5.0 9.0 0.00 0.00 0.00 100 964.7
20260502111427 64 66 4.0 10.0 0.00 0.00 0.00 100 964.8
20260502111224 64 98 4.0 10.0 0.00 0.00 0.00 100 964.7
20260502111123 64 99 5.0 10.0 0.00 0.00 0.00 100 964.8
20260502111021 63 77 5.0 10.0 0.00 0.00 0.00 100 964.8
20260502110817 64 77 5.0 8.0 0.00 0.00 0.00 100 964.8
20260502110615 63 79 6.0 8.0 0.00 0.00 0.00 100 964.8
20260502110514 63 68 6.0 8.0 0.00 0.00 0.00 100 964.6
20260502110411 64 50 5.0 8.0 0.00 0.00 0.00 100 964.7
20260502110157 63 31 4.0 8.0 0.00 0.00 0.00 100 964.8
20260502105954 63 36 5.0 8.0 0.00 0.00 0.00 100 964.9
20260502105750 64 43 4.0 8.0 0.00 0.00 0.00 100 964.9
20260502105548 64 52 2.0 7.0 0.00 0.00 0.00 100 964.9
20260502105345 64 69 2.0 7.0 0.00 0.00 0.00 100 964.9
20260502105142 63 69 4.0 7.0 0.00 0.00 0.00 100 964.9
20260502104938 63 65 5.0 7.0 0.00 0.00 0.00 100 964.9
20260502104735 64 43 5.0 12.0 0.00 0.00 0.00 100 964.9
20260502104634 64 37 5.0 12.0 0.00 0.00 0.00 100 965.0
20260502104532 64 35 5.0 12.0 0.00 0.00 0.00 100 964.9
20260502104328 64 28 3.0 12.0 0.00 0.00 0.00 100 964.9
20260502104125 64 0 1.0 5.0 0.00 0.00 0.00 100 964.9
20260502104025 64 66 2.0 6.0 0.00 0.00 0.00 100 964.9
20260502103922 63 47 2.0 6.0 0.00 0.00 0.00 100 964.9
20260502103719 63 33 4.0 7.0 0.00 0.00 0.00 100 965.0
20260502103516 63 27 5.0 10.0 0.00 0.00 0.00 100 965.0
20260502103416 63 24 6.0 11.0 0.00 0.00 0.00 100 965.0
20260502103313 63 17 6.0 11.0 0.00 0.00 0.00 100 965.0
20260502103110 63 39 4.0 11.0 0.00 0.00 0.00 100 965.0
20260502102907 64 95 3.0 6.0 0.00 0.00 0.00 100 965.1
20260502102806 63 93 3.0 6.0 0.00 0.00 0.00 100 965.0
20260502102701 63 93 3.0 6.0 0.00 0.00 0.00 100 965.0
20260502102457 63 78 2.0 6.0 0.00 0.00 0.00 100 965.1
20260502102254 62 275 3.0 7.0 0.00 0.00 0.00 100 965.1
20260502102153 62 293 4.0 9.0 0.00 0.00 0.00 100 965.1
20260502102051 62 296 5.0 9.0 0.00 0.00 0.00 100 965.0
20260502101848 62 312 6.0 9.0 0.00 0.00 0.00 100 965.1
20260502101645 62 304 6.0 8.0 0.00 0.00 0.00 100 965.0
20260502101544 62 304 6.0 8.0 0.00 0.00 0.00 100 965.0
20260502101441 62 311 5.0 8.0 0.00 0.00 0.00 100 965.1
20260502101238 62 333 5.0 8.0 0.00 0.00 0.00 100 965.2
20260502101035 62 345 6.0 11.0 0.00 0.00 0.00 100 965.2
20260502100934 61 346 7.0 11.0 0.00 0.00 0.00 100 965.2
20260502100832 61 345 7.0 11.0 0.00 0.00 0.00 100 965.2
20260502100629 62 343 7.0 12.0 0.00 0.00 0.00 100 965.2
20260502100426 62 342 6.0 12.0 0.00 0.00 0.00 100 965.2
20260502100326 62 345 6.0 12.0 0.00 0.00 0.00 100 965.2
20260502100223 62 350 6.0 11.0 0.00 0.00 0.00 100 965.2
20260502091510 61 347 3.0 8.0 0.00 0.00 0.00 100 965.6
20260502091409 62 0 2.0 7.0 0.00 0.00 0.00 100 965.7
20260502091307 62 0 2.0 6.0 0.00 0.00 0.00 100 965.6
20260502091104 60 130 4.0 10.0 0.00 0.00 0.00 100 965.7
20260502090901 60 131 6.0 10.0 0.00 0.00 0.00 100 965.6
20260502090800 60 133 6.0 10.0 0.00 0.00 0.00 100 965.6
20260502090658 60 133 5.0 10.0 0.00 0.00 0.00 100 965.6
20260502090455 60 104 4.0 8.0 0.00 0.00 0.00 100 965.6
20260502090252 60 77 5.0 8.0 0.00 0.00 0.00 100 965.7
20260502090151 60 72 6.0 8.0 0.00 0.00 0.00 100 965.7
20260502071347 55 324 2.0 3.0 0.00 0.00 0.00 100 966.0
20260502071143 55 334 1.0 3.0 0.00 0.00 0.00 100 966.0
20260502071042 55 352 2.0 3.0 0.00 0.00 0.00 100 966.1
20260502070940 54 358 2.0 3.0 0.00 0.00 0.00 100 966.1
20260502070737 54 9 2.0 3.0 0.00 0.00 0.00 100 966.1
20260502070534 54 355 2.0 4.0 0.00 0.00 0.00 100 966.1
20260502070434 54 337 2.0 4.0 0.00 0.00 0.00 100 966.0
20260502070331 54 333 2.0 4.0 0.00 0.00 0.00 100 966.0
20260502070128 54 347 2.0 4.0 0.00 0.00 0.00 100 966.0
20260502065924 54 354 1.0 3.0 0.00 0.00 0.00 100 966.0
20260502065824 55 0 1.0 3.0 0.00 0.00 0.00 100 966.1
20260502065721 54 0 1.0 3.0 0.00 0.00 0.00 100 966.0
20260502065519 54 260 1.0 3.0 0.00 0.00 0.00 100 966.1
20260502065316 54 263 1.0 3.0 0.00 0.00 0.00 100 966.1
20260502065215 53 280 1.0 3.0 0.00 0.00 0.00 100 966.2
20260502065113 53 288 1.0 3.0 0.00 0.00 0.00 100 966.0
20260502064909 52 280 1.0 3.0 0.00 0.00 0.00 100 966.1
20260502064706 52 285 2.0 3.0 0.00 0.00 0.00 100 966.1
20260502064606 51 304 2.0 3.0 0.00 0.00 0.00 100 966.0
20260502064504 52 317 2.0 3.0 0.00 0.00 0.00 100 966.1
20260502064301 52 0 1.0 3.0 0.00 0.00 0.00 100 966.1
20260502064057 52 0 0.0 2.0 0.00 0.00 0.00 100 966.1
20260502063956 51 32 1.0 3.0 0.00 0.00 0.00 100 966.0
20260502063854 50 20 1.0 3.0 0.00 0.00 0.00 100 966.2
20260502063651 50 2 2.0 4.0 0.00 0.00 0.00 100 966.2
20260502063447 49 345 2.0 4.0 0.00 0.00 0.00 100 966.1
20260502063347 49 346 3.0 4.0 0.00 0.00 0.00 100 966.1
20260502063244 49 343 3.0 4.0 0.00 0.00 0.00 100 966.1
20260502063041 49 341 2.0 4.0 0.00 0.00 0.00 100 966.1
20260502062838 49 344 2.0 4.0 0.00 0.00 0.00 100 966.0
20260502062737 49 346 2.0 4.0 0.00 0.00 0.00 100 966.1
20260502062634 48 351 2.0 4.0 0.00 0.00 0.00 100 966.1
20260502062431 48 358 2.0 4.0 0.00 0.00 0.00 100 966.1
20260502062228 48 3 2.0 4.0 0.00 0.00 0.00 100 966.1
20260502062127 48 3 2.0 3.0 0.00 0.00 0.00 100 966.0
20260502062021 48 2 2.0 3.0 0.00 0.00 0.00 100 966.0
20260502061818 48 352 2.0 3.0 0.00 0.00 0.00 100 966.1
20260502061615 48 5 1.0 3.0 0.00 0.00 0.00 100 966.1
20260502061514 48 7 1.0 3.0 0.00 0.00 0.00 100 966.1
20260502061412 48 6 2.0 3.0 0.00 0.00 0.00 100 966.1
20260502061208 48 352 2.0 3.0 0.00 0.00 0.00 100 966.2
20260502061006 48 353 1.0 3.0 0.00 0.00 0.00 100 966.1
20260502060905 47 3 1.0 2.0 0.00 0.00 0.00 100 966.1
20260502060802 47 25 1.0 2.0 0.00 0.00 0.00 100 966.1
20260502060559 47 20 1.0 2.0 0.00 0.00 0.00 100 966.2
20260502060356 46 354 1.0 2.0 0.00 0.00 0.00 100 966.2
20260502060256 46 345 1.0 3.0 0.00 0.00 0.00 100 966.1
20260502060153 45 342 2.0 4.0 0.00 0.00 0.00 100 966.2
20260502055950 45 342 2.0 4.0 0.00 0.00 0.00 100 966.2
20260502055747 45 344 2.0 2.0 0.00 0.00 0.00 100 966.2
20260502055646 45 352 2.0 3.0 0.00 0.00 0.00 100 966.2
20260502055543 45 354 2.0 4.0 0.00 0.00 0.00 100 966.1
20260502055341 45 3 2.0 4.0 0.00 0.00 0.00 100 966.3
20260502055137 44 358 2.0 4.0 0.00 0.00 0.00 100 966.2
20260502055036 44 354 2.0 3.0 0.00 0.00 0.00 100 966.1
20260502054934 44 353 1.0 3.0 0.00 0.00 0.00 100 966.1
20260502054731 44 6 2.0 3.0 0.00 0.00 0.00 100 966.1
20260502054528 43 8 2.0 4.0 0.00 0.00 0.00 100 966.2
20260502054414 43 7 2.0 4.0 0.00 0.00 0.00 100 966.1
20260502054311 43 7 2.0 4.0 0.00 0.00 0.00 100 966.2
20260502054108 43 3 2.0 4.0 0.00 0.00 0.00 100 966.1
20260502053904 43 358 2.0 4.0 0.00 0.00 0.00 100 966.1
20260502053803 43 359 2.0 4.0 0.00 0.00 0.00 100 966.1
20260502053700 43 0 2.0 4.0 0.00 0.00 0.00 100 966.1
20260502053458 43 3 2.0 3.0 0.00 0.00 0.00 100 966.1
20260502053255 43 2 2.0 3.0 0.00 0.00 0.00 100 966.1
20260502053154 43 2 2.0 3.0 0.00 0.00 0.00 100 966.1
20260502053052 42 3 2.0 3.0 0.00 0.00 0.00 100 966.0
20260502052849 42 3 3.0 4.0 0.00 0.00 0.00 100 966.1
20260502052645 42 3 3.0 4.0 0.00 0.00 0.00 100 966.1
20260502052545 42 3 3.0 4.0 0.00 0.00 0.00 100 966.0
20260502052442 42 1 3.0 4.0 0.00 0.00 0.00 100 966.1
20260502052239 42 2 2.0 4.0 0.00 0.00 0.00 100 966.1
20260502052036 42 357 2.0 3.0 0.00 0.00 0.00 100 966.0
20260502051936 42 355 2.0 3.0 0.00 0.00 0.00 100 966.1
20260502051830 42 351 2.0 3.0 0.00 0.00 0.00 100 966.0
20260502051627 42 347 2.0 2.0 0.00 0.00 0.00 100 966.1
20260502051424 42 343 2.0 4.0 0.00 0.00 0.00 100 966.1
20260502051324 41 343 2.0 4.0 0.00 0.00 0.00 100 966.1
20260502051221 41 344 3.0 4.0 0.00 0.00 0.00 100 966.1
20260502051018 41 344 3.0 4.0 0.00 0.00 0.00 100 966.1
20260502050815 41 344 3.0 3.0 0.00 0.00 0.00 100 966.0
20260502050714 41 345 2.0 3.0 0.00 0.00 0.00 100 966.0
20260502050612 41 345 2.0 3.0 0.00 0.00 0.00 100 965.9
20260502050410 41 345 2.0 3.0 0.00 0.00 0.00 100 966.1
20260502050207 41 346 2.0 3.0 0.00 0.00 0.00 100 966.0
20260502050106 41 346 2.0 3.0 0.00 0.00 0.00 100 966.0
20260502050003 41 345 2.0 3.0 0.00 0.00 0.00 100 966.0
20260502045800 41 344 2.0 3.0 0.00 0.00 0.00 100 966.0
20260502045557 42 345 2.0 3.0 0.00 0.00 0.00 100 966.1
20260502045456 42 342 2.0 3.0 0.00 0.00 0.00 100 966.1
20260502045354 42 341 2.0 3.0 0.00 0.00 0.00 100 966.0
20260502045151 42 313 1.0 3.0 0.00 0.00 0.00 100 966.1
20260502044947 42 297 1.0 3.0 0.00 0.00 0.00 100 966.0
20260502044847 41 292 1.0 3.0 0.00 0.00 0.00 100 966.1
20260502044744 41 291 1.0 3.0 0.00 0.00 0.00 100 966.1
20260502044541 41 300 2.0 4.0 0.00 0.00 0.00 100 966.0
20260502044337 40 302 3.0 4.0 0.00 0.00 0.00 100 966.0
20260502044236 41 303 2.0 4.0 0.00 0.00 0.00 100 966.1
20260502044134 41 306 2.0 4.0 0.00 0.00 0.00 100 966.1
20260502043931 41 325 1.0 3.0 0.00 0.00 0.00 100 966.1
20260502043728 41 340 2.0 3.0 0.00 0.00 0.00 100 966.1
20260502043627 41 344 2.0 3.0 0.00 0.00 0.00 100 966.1
20260502043525 41 346 2.0 3.0 0.00 0.00 0.00 100 966.0
20260502043322 41 344 2.0 3.0 0.00 0.00 0.00 100 966.1
20260502043119 41 343 2.0 3.0 0.00 0.00 0.00 100 966.0
20260502043018 41 336 1.0 2.0 0.00 0.00 0.00 100 966.1
20260502042916 41 329 1.0 2.0 0.00 0.00 0.00 100 966.1
20260502042713 41 317 1.0 2.0 0.00 0.00 0.00 100 966.0
20260502042509 41 315 1.0 2.0 0.00 0.00 0.00 100 966.0
20260502042409 41 310 1.0 2.0 0.00 0.00 0.00 100 966.0
20260502042306 40 301 1.0 2.0 0.00 0.00 0.00 100 966.1
20260502042103 40 303 1.0 2.0 0.00 0.00 0.00 100 966.0
20260502041900 40 324 1.0 2.0 0.00 0.00 0.00 100 966.0
20260502041759 40 330 2.0 3.0 0.00 0.00 0.00 100 966.0
20260502041653 40 335 2.0 3.0 0.00 0.00 0.00 100 966.0
20260502041450 40 342 2.0 3.0 0.00 0.00 0.00 100 965.9
20260502041246 40 344 2.0 2.0 0.00 0.00 0.00 100 965.9
20260502041146 40 338 1.0 2.0 0.00 0.00 0.00 100 966.0
20260502041043 40 337 2.0 3.0 0.00 0.00 0.00 100 966.0
20260502040840 40 343 2.0 3.0 0.00 0.00 0.00 100 966.0
20260502040637 40 353 3.0 3.0 0.00 0.00 0.00 100 965.9
20260502040536 40 359 2.0 3.0 0.00 0.00 0.00 100 965.9
20260502040434 40 3 2.0 3.0 0.00 0.00 0.00 100 965.9
20260502040231 40 26 1.0 2.0 0.00 0.00 0.00 100 965.9
20260502040028 41 0 0.0 1.0 0.00 0.00 0.00 100 965.8
20260502035927 41 0 0.0 1.0 0.00 0.00 0.00 100 965.9
20260502035825 41 0 0.0 1.0 0.00 0.00 0.00 100 965.9
20260502035622 41 0 0.0 1.0 0.00 0.00 0.00 100 965.9
20260502035418 40 0 0.0 1.0 0.00 0.00 0.00 100 965.8
20260502035318 40 0 0.0 1.0 0.00 0.00 0.00 100 965.8
20260502035216 40 0 0.0 1.0 0.00 0.00 0.00 100 965.9
20260502035013 40 0 0.0 1.0 0.00 0.00 0.00 100 965.9
20260502034809 39 0 0.0 1.0 0.00 0.00 0.00 100 965.9
20260502034708 39 0 0.0 2.0 0.00 0.00 0.00 100 965.8
20260502034607 39 0 0.0 2.0 0.00 0.00 0.00 100 965.9
20260502034403 38 317 1.0 2.0 0.00 0.00 0.00 100 965.8
20260502034200 38 334 1.0 1.0 0.00 0.00 0.00 100 965.9
20260502034059 38 333 1.0 2.0 0.00 0.00 0.00 100 965.9
20260502033957 38 332 2.0 2.0 0.00 0.00 0.00 100 965.9
20260502033753 38 331 2.0 2.0 0.00 0.00 0.00 100 965.9
20260502033550 38 330 2.0 2.0 0.00 0.00 0.00 100 965.9
20260502033449 38 332 2.0 2.0 0.00 0.00 0.00 100 965.9
20260502033347 38 335 2.0 2.0 0.00 0.00 0.00 100 965.9
20260502033144 39 340 2.0 3.0 0.00 0.00 0.00 100 965.8
20260502032940 39 345 2.0 3.0 0.00 0.00 0.00 100 965.8
20260502032839 39 347 1.0 2.0 0.00 0.00 0.00 100 965.9
20260502032737 39 0 1.0 2.0 0.00 0.00 0.00 100 965.8
20260502032534 39 13 2.0 2.0 0.00 0.00 0.00 100 965.9
20260502032330 39 12 2.0 3.0 0.00 0.00 0.00 100 965.8
20260502032230 40 5 1.0 3.0 0.00 0.00 0.00 100 965.8
20260502032128 40 358 1.0 3.0 0.00 0.00 0.00 100 965.8
20260502031924 40 0 0.0 1.0 0.00 0.00 0.00 100 965.8
20260502031721 40 0 0.0 1.0 0.00 0.00 0.00 100 965.8
20260502031620 40 0 0.0 1.0 0.00 0.00 0.00 100 965.8
20260502031320 40 0 0.0 1.0 0.00 0.00 0.00 100 965.8
20260502031219 40 0 0.0 2.0 0.00 0.00 0.00 100 965.8
20260502031117 41 0 0.0 2.0 0.00 0.00 0.00 100 965.8
20260502030914 41 174 1.0 2.0 0.00 0.00 0.00 100 965.8
20260502030711 41 172 1.0 3.0 0.00 0.00 0.00 100 965.8
20260502030610 41 173 1.0 3.0 0.00 0.00 0.00 100 965.8
20260502030508 41 170 1.0 3.0 0.00 0.00 0.00 100 965.8
20260502030304 40 0 0.0 1.0 0.00 0.00 0.00 100 965.8
20260502030101 40 0 0.0 1.0 0.00 0.00 0.00 100 965.8
20260502025947 40 306 0.0 3.0 0.00 0.00 0.00 100 965.8
20260502025844 40 306 1.0 3.0 0.00 0.00 0.00 100 965.9
20260502025642 40 317 1.0 3.0 0.00 0.00 0.00 100 965.9
20260502025439 40 308 1.0 2.0 0.00 0.00 0.00 100 965.8
20260502025338 40 304 2.0 3.0 0.00 0.00 0.00 100 965.8
20260502025236 40 303 2.0 3.0 0.00 0.00 0.00 100 965.8
20260502025033 40 307 2.0 3.0 0.00 0.00 0.00 100 965.9
20260502024830 40 304 2.0 2.0 0.00 0.00 0.00 100 965.8
20260502024729 40 300 2.0 3.0 0.00 0.00 0.00 100 965.8
20260502024626 40 295 2.0 3.0 0.00 0.00 0.00 100 965.8
20260502024423 39 297 2.0 3.0 0.00 0.00 0.00 100 965.8
20260502024221 39 310 2.0 2.0 0.00 0.00 0.00 100 965.8
20260502024120 39 320 2.0 2.0 0.00 0.00 0.00 100 965.8
20260502024018 39 327 2.0 2.0 0.00 0.00 0.00 100 965.8
20260502023815 39 348 1.0 2.0 0.00 0.00 0.00 100 965.9
20260502023611 40 355 2.0 2.0 0.00 0.00 0.00 100 965.9
20260502023511 40 354 2.0 2.0 0.00 0.00 0.00 100 965.9
20260502023409 40 358 2.0 2.0 0.00 0.00 0.00 100 965.9
20260502023205 40 1 1.0 2.0 0.00 0.00 0.00 100 965.9
20260502023002 40 2 1.0 2.0 0.00 0.00 0.00 100 965.9
20260502022901 40 357 1.0 2.0 0.00 0.00 0.00 100 965.9
20260502022758 40 354 1.0 2.0 0.00 0.00 0.00 100 965.9
20260502022556 40 345 1.0 1.0 0.00 0.00 0.00 100 965.9
20260502022353 40 339 1.0 2.0 0.00 0.00 0.00 100 965.8
20260502022252 40 326 1.0 2.0 0.00 0.00 0.00 100 965.9
20260502022149 40 317 1.0 2.0 0.00 0.00 0.00 100 965.8
20260502021946 40 302 2.0 2.0 0.00 0.00 0.00 100 965.8
20260502021743 40 310 2.0 2.0 0.00 0.00 0.00 100 965.8
20260502021642 40 313 2.0 2.0 0.00 0.00 0.00 100 965.8
20260502021540 40 310 1.0 2.0 0.00 0.00 0.00 100 965.8
20260502021333 40 297 1.0 2.0 0.00 0.00 0.00 100 965.8
20260502021131 40 296 2.0 2.0 0.00 0.00 0.00 100 965.9
20260502021030 40 292 2.0 2.0 0.00 0.00 0.00 100 965.9
20260502020927 40 288 2.0 2.0 0.00 0.00 0.00 100 965.9
20260502020725 40 292 2.0 2.0 0.00 0.00 0.00 100 965.8
20260502020522 40 312 2.0 2.0 0.00 0.00 0.00 100 965.9
20260502020422 40 316 2.0 2.0 0.00 0.00 0.00 100 965.9
20260502020319 40 318 2.0 3.0 0.00 0.00 0.00 100 965.8
20260502020116 40 322 2.0 3.0 0.00 0.00 0.00 100 965.7
20260502015912 40 327 2.0 3.0 0.00 0.00 0.00 100 965.8
20260502015812 40 328 2.0 3.0 0.00 0.00 0.00 100 965.8
20260502015709 40 331 2.0 3.0 0.00 0.00 0.00 100 965.8
20260502015506 40 343 2.0 2.0 0.00 0.00 0.00 100 965.8
20260502015305 40 353 3.0 3.0 0.00 0.00 0.00 100 965.7
20260502015202 40 352 3.0 3.0 0.00 0.00 0.00 100 965.8
20260502015100 41 350 3.0 3.0 0.00 0.00 0.00 100 965.8
20260502014857 41 353 3.0 3.0 0.00 0.00 0.00 100 965.8
20260502014654 41 0 2.0 3.0 0.00 0.00 0.00 100 965.7
20260502014553 41 3 2.0 3.0 0.00 0.00 0.00 100 965.7
20260502014451 41 6 1.0 3.0 0.00 0.00 0.00 100 965.7
20260502014248 41 0 1.0 1.0 0.00 0.00 0.00 100 965.8
20260502014045 41 0 0.0 1.0 0.00 0.00 0.00 100 965.8
20260502013944 40 0 0.0 0.0 0.00 0.00 0.00 100 965.8
20260502013842 40 0 0.0 1.0 0.00 0.00 0.00 100 965.9
20260502013638 41 0 0.0 1.0 0.00 0.00 0.00 100 965.8
20260502013435 40 265 1.0 1.0 0.00 0.00 0.00 100 965.8
20260502013335 40 275 1.0 1.0 0.00 0.00 0.00 100 965.8
20260502013232 40 299 1.0 1.0 0.00 0.00 0.00 100 965.8
20260502013030 40 304 1.0 2.0 0.00 0.00 0.00 100 965.9
20260502012827 40 316 2.0 3.0 0.00 0.00 0.00 100 965.9
20260502012725 40 325 2.0 3.0 0.00 0.00 0.00 100 965.9
20260502012623 40 328 2.0 3.0 0.00 0.00 0.00 100 965.9
20260502012421 40 331 3.0 3.0 0.00 0.00 0.00 100 965.9
20260502012218 40 333 3.0 4.0 0.00 0.00 0.00 100 965.9
20260502012117 41 334 3.0 4.0 0.00 0.00 0.00 100 965.9
20260502012014 41 334 3.0 4.0 0.00 0.00 0.00 100 965.8
20260502011811 41 333 3.0 4.0 0.00 0.00 0.00 100 965.9
20260502011607 41 329 3.0 3.0 0.00 0.00 0.00 100 965.9
20260502011507 41 328 3.0 3.0 0.00 0.00 0.00 100 965.9
20260502011404 42 328 2.0 3.0 0.00 0.00 0.00 100 965.9
20260502011157 42 327 2.0 2.0 0.00 0.00 0.00 100 966.0
20260502010954 42 329 2.0 2.0 0.00 0.00 0.00 100 966.0
20260502010853 42 324 2.0 2.0 0.00 0.00 0.00 100 966.0
20260502010751 42 324 2.0 2.0 0.00 0.00 0.00 100 965.9
20260502010547 42 327 2.0 2.0 0.00 0.00 0.00 100 965.9
20260502010344 42 328 1.0 2.0 0.00 0.00 0.00 100 965.9
20260502010243 42 320 1.0 2.0 0.00 0.00 0.00 100 965.9
20260502010141 42 304 1.0 1.0 0.00 0.00 0.00 100 966.0
20260502005938 42 284 1.0 2.0 0.00 0.00 0.00 100 966.1
20260502005735 42 295 1.0 2.0 0.00 0.00 0.00 100 965.9
20260502005634 42 302 1.0 2.0 0.00 0.00 0.00 100 965.9
20260502005532 42 311 1.0 2.0 0.00 0.00 0.00 100 966.0
20260502005329 42 313 1.0 2.0 0.00 0.00 0.00 100 966.0
20260502005125 42 335 2.0 3.0 0.00 0.00 0.00 100 966.0
20260502005024 42 341 2.0 3.0 0.00 0.00 0.00 100 965.9
20260502004922 43 352 2.0 3.0 0.00 0.00 0.00 100 965.9
20260502004719 43 358 2.0 3.0 0.00 0.00 0.00 100 966.0
20260502004516 43 357 2.0 2.0 0.00 0.00 0.00 100 966.1
20260502004415 42 355 2.0 2.0 0.00 0.00 0.00 100 966.0
20260502004313 42 349 2.0 2.0 0.00 0.00 0.00 100 965.9
20260502004110 42 349 1.0 2.0 0.00 0.00 0.00 100 966.0
20260502003907 42 348 1.0 1.0 0.00 0.00 0.00 100 966.0
20260502003806 42 331 1.0 1.0 0.00 0.00 0.00 100 966.1
20260502003703 42 323 1.0 1.0 0.00 0.00 0.00 100 966.1
20260502003501 42 0 0.0 1.0 0.00 0.00 0.00 100 966.0
20260502003258 42 0 0.0 1.0 0.00 0.00 0.00 100 966.1
20260502003157 42 0 0.0 1.0 0.00 0.00 0.00 100 966.1
20260502003055 42 0 0.0 1.0 0.00 0.00 0.00 100 966.0
20260502002852 42 0 0.0 1.0 0.00 0.00 0.00 100 966.0
20260502002648 42 0 0.0 2.0 0.00 0.00 0.00 100 966.1
20260502002547 42 255 0.0 2.0 0.00 0.00 0.00 100 966.0
20260502002445 42 266 1.0 2.0 0.00 0.00 0.00 100 966.2
20260502002241 42 277 2.0 2.0 0.00 0.00 0.00 100 966.1
20260502002025 42 296 2.0 3.0 0.00 0.00 0.00 100 966.0
20260502001924 42 301 3.0 3.0 0.00 0.00 0.00 100 966.1
20260502001822 42 305 3.0 4.0 0.00 0.00 0.00 100 966.1
20260502001618 42 310 3.0 4.0 0.00 0.00 0.00 100 966.1
20260502001415 42 311 3.0 4.0 0.00 0.00 0.00 100 966.0
20260502001315 42 314 3.0 4.0 0.00 0.00 0.00 100 966.1
20260502001213 42 328 3.0 3.0 0.00 0.00 0.00 100 966.1
20260502001007 42 343 3.0 4.0 0.00 0.00 0.00 100 966.1
20260502000803 43 351 3.0 3.0 0.00 0.00 0.00 100 966.2
20260502000703 43 353 3.0 3.0 0.00 0.00 0.00 100 966.1
20260502000600 43 353 3.0 3.0 0.00 0.00 0.00 100 966.1
20260502000357 43 355 2.0 3.0 0.00 0.00 0.00 100 966.0
20260502000154 43 356 2.0 3.0 0.00 0.00 0.00 100 966.1
20260502000052 43 351 1.0 3.0 0.00 0.00 0.00 100 966.1
20260501235950 44 344 1.0 2.0 0.00 0.00 0.00 100 966.0
20260501235746 44 345 1.0 2.0 0.00 0.00 0.00 100 966.0
20260501235543 44 350 1.0 2.0 0.00 0.00 0.00 100 966.1
20260501235443 44 346 1.0 2.0 0.00 0.00 0.00 100 966.0
20260501235339 44 0 0.0 2.0 0.00 0.00 0.00 100 966.1
20260501235137 44 0 0.0 1.0 0.00 0.00 0.00 100 966.1
20260501234934 44 294 0.0 2.0 0.00 0.00 0.00 100 966.1
20260501234834 44 292 1.0 2.0 0.00 0.00 0.00 100 966.0
20260501234732 44 292 1.0 2.0 0.00 0.00 0.00 100 966.1
20260501234528 44 296 2.0 2.0 0.00 0.00 0.00 100 966.0
20260501234325 44 313 2.0 2.0 0.00 0.00 0.00 100 966.1
20260501234225 44 319 2.0 2.0 0.00 0.00 0.00 100 966.1
20260501234123 44 327 2.0 2.0 0.00 0.00 0.00 100 966.0
20260501233920 44 338 2.0 2.0 0.00 0.00 0.00 100 966.1
20260501233717 44 336 2.0 2.0 0.00 0.00 0.00 100 966.1
20260501233616 44 335 2.0 3.0 0.00 0.00 0.00 100 966.1
20260501233514 44 337 2.0 3.0 0.00 0.00 0.00 100 966.1
20260501233311 44 335 2.0 3.0 0.00 0.00 0.00 100 966.1
20260501233108 44 329 2.0 2.0 0.00 0.00 0.00 100 966.0
20260501233007 44 328 2.0 2.0 0.00 0.00 0.00 100 966.0
20260501232904 44 332 2.0 2.0 0.00 0.00 0.00 100 966.0
20260501232701 45 337 2.0 2.0 0.00 0.00 0.00 100 966.0
20260501232458 45 351 2.0 2.0 0.00 0.00 0.00 100 966.0
20260501232357 45 356 1.0 2.0 0.00 0.00 0.00 100 966.0
20260501232255 45 354 1.0 2.0 0.00 0.00 0.00 100 966.0
20260501232052 45 0 0.0 2.0 0.00 0.00 0.00 100 966.0
20260501231848 45 0 1.0 2.0 0.00 0.00 0.00 100 966.2
20260501231747 45 337 1.0 1.0 0.00 0.00 0.00 100 966.0
20260501231645 45 348 1.0 1.0 0.00 0.00 0.00 100 966.1
20260501231442 45 335 1.0 1.0 0.00 0.00 0.00 100 966.0
20260501231239 45 322 1.0 1.0 0.00 0.00 0.00 100 966.1
20260501231138 45 323 1.0 1.0 0.00 0.00 0.00 100 966.0
20260501231035 45 327 1.0 1.0 0.00 0.00 0.00 100 966.2
20260501230829 45 158 1.0 2.0 0.00 0.00 0.00 100 966.2
20260501230626 45 162 1.0 2.0 0.00 0.00 0.00 100 966.2
20260501230526 45 172 1.0 2.0 0.00 0.00 0.00 100 966.1
20260501230423 45 0 1.0 2.0 0.00 0.00 0.00 100 966.2
20260501230220 45 311 2.0 3.0 0.00 0.00 0.00 100 966.1
20260501230017 45 321 2.0 3.0 0.00 0.00 0.00 100 966.1
20260501225917 46 328 2.0 3.0 0.00 0.00 0.00 100 966.2
20260501225815 46 336 2.0 3.0 0.00 0.00 0.00 100 966.1
20260501225611 46 346 2.0 3.0 0.00 0.00 0.00 100 966.2
20260501225409 46 349 2.0 3.0 0.00 0.00 0.00 100 966.1
20260501225308 47 349 2.0 3.0 0.00 0.00 0.00 100 966.2
20260501225206 47 349 3.0 3.0 0.00 0.00 0.00 100 966.0
20260501225003 47 349 3.0 4.0 0.00 0.00 0.00 100 966.1
20260501224800 47 350 3.0 4.0 0.00 0.00 0.00 100 966.1
20260501224659 47 350 3.0 4.0 0.00 0.00 0.00 100 966.1
20260501224557 48 350 2.0 4.0 0.00 0.00 0.00 100 966.1
20260501224353 47 339 1.0 3.0 0.00 0.00 0.00 100 966.1
20260501224150 47 0 1.0 1.0 0.00 0.00 0.00 100 966.0
20260501224049 47 0 0.0 1.0 0.00 0.00 0.00 100 966.1
20260501223947 47 0 0.0 1.0 0.00 0.00 0.00 100 966.0
20260501223744 47 0 0.0 1.0 0.00 0.00 0.00 100 966.0
20260501223541 47 0 0.0 1.0 0.00 0.00 0.00 100 966.0
20260501223440 47 0 0.0 2.0 0.00 0.00 0.00 100 966.0
20260501223338 47 0 0.0 2.0 0.00 0.00 0.00 100 966.0
20260501223134 47 0 0.0 2.0 0.00 0.00 0.00 100 966.1
20260501222931 47 0 0.0 2.0 0.00 0.00 0.00 100 966.1
20260501222831 47 241 1.0 2.0 0.00 0.00 0.00 100 966.2
20260501222728 48 249 1.0 2.0 0.00 0.00 0.00 100 966.1
20260501222525 48 306 1.0 2.0 0.00 0.00 0.00 100 966.2
20260501222322 48 308 2.0 3.0 0.00 0.00 0.00 100 966.1
20260501222221 48 307 2.0 3.0 0.00 0.00 0.00 100 966.1
20260501222119 48 303 2.0 3.0 0.00 0.00 0.00 100 966.0
20260501221916 48 297 2.0 3.0 0.00 0.00 0.00 100 966.0
20260501221713 47 298 2.0 2.0 0.00 0.00 0.00 100 966.0
20260501221612 47 301 1.0 2.0 0.00 0.00 0.00 100 966.1
20260501221509 48 315 1.0 2.0 0.00 0.00 0.00 100 966.1
20260501221306 48 325 2.0 3.0 0.00 0.00 0.00 100 966.1
20260501221103 48 329 2.0 3.0 0.00 0.00 0.00 100 966.1
20260501221002 48 331 2.0 3.0 0.00 0.00 0.00 100 966.1
20260501220900 48 330 2.0 3.0 0.00 0.00 0.00 100 966.1
20260501220653 48 331 3.0 3.0 0.00 0.00 0.00 100 966.1
20260501220450 48 331 3.0 3.0 0.00 0.00 0.00 100 966.1
20260501220349 48 331 3.0 3.0 0.00 0.00 0.00 100 966.1
20260501220246 48 333 2.0 3.0 0.00 0.00 0.00 100 966.0
20260501220043 48 341 2.0 3.0 0.00 0.00 0.00 100 966.0
20260501215840 48 346 2.0 3.0 0.00 0.00 0.00 100 966.1
20260501215739 48 344 2.0 3.0 0.00 0.00 0.00 100 966.0
20260501215637 48 343 1.0 3.0 0.00 0.00 0.00 100 966.1
20260501215434 48 336 1.0 2.0 0.00 0.00 0.00 100 966.1
20260501215232 48 309 1.0 2.0 0.00 0.00 0.00 100 966.0
20260501215130 48 307 1.0 1.0 0.00 0.00 0.00 100 966.0
20260501215028 48 309 1.0 2.0 0.00 0.00 0.00 100 966.1
20260501214825 48 331 2.0 4.0 0.00 0.00 0.00 100 966.1
20260501214622 49 330 3.0 3.0 0.00 0.00 0.00 100 966.1
20260501214521 49 325 3.0 4.0 0.00 0.00 0.00 100 966.1
20260501214419 49 320 3.0 4.0 0.00 0.00 0.00 100 966.1
20260501214217 48 320 3.0 4.0 0.00 0.00 0.00 100 966.1
20260501214003 49 322 3.0 4.0 0.00 0.00 0.00 100 966.1
20260501213902 49 321 3.0 4.0 0.00 0.00 0.00 100 966.1
20260501213759 49 320 3.0 4.0 0.00 0.00 0.00 100 966.1
20260501213556 49 321 2.0 3.0 0.00 0.00 0.00 100 966.1
20260501213353 49 313 2.0 2.0 0.00 0.00 0.00 100 966.0
20260501213252 49 304 1.0 2.0 0.00 0.00 0.00 100 966.1
20260501213150 50 288 1.0 2.0 0.00 0.00 0.00 100 966.1
20260501212947 50 291 1.0 1.0 0.00 0.00 0.00 100 966.1
20260501212744 50 312 1.0 2.0 0.00 0.00 0.00 100 966.0
20260501212643 50 327 1.0 2.0 0.00 0.00 0.00 100 966.0
20260501212541 50 6 1.0 2.0 0.00 0.00 0.00 100 966.0
20260501212338 50 55 1.0 1.0 0.00 0.00 0.00 100 966.0
20260501212134 50 49 1.0 2.0 0.00 0.00 0.00 100 966.0
20260501212034 50 16 1.0 2.0 0.00 0.00 0.00 100 966.0
20260501211931 50 12 1.0 2.0 0.00 0.00 0.00 100 966.0
20260501211729 50 358 1.0 2.0 0.00 0.00 0.00 100 966.0
20260501211525 50 0 0.0 1.0 0.00 0.00 0.00 100 966.0
20260501211424 50 0 0.0 1.0 0.00 0.00 0.00 100 966.0
20260501211321 50 0 0.0 2.0 0.00 0.00 0.00 100 966.0
20260501211119 50 0 1.0 3.0 0.00 0.00 0.00 100 965.9
20260501210915 50 216 1.0 3.0 0.00 0.00 0.00 100 965.9
20260501210815 50 211 1.0 2.0 0.00 0.00 0.00 100 966.0
20260501210713 50 209 1.0 2.0 0.00 0.00 0.00 100 965.9
20260501210506 50 0 0.0 2.0 0.00 0.00 0.00 100 965.9
20260501210303 50 0 0.0 2.0 0.00 0.00 0.00 100 965.9
20260501210202 50 0 0.0 2.0 0.00 0.00 0.00 100 966.0
20260501210100 50 0 0.0 2.0 0.00 0.00 0.00 100 965.9
20260501205857 50 0 0.0 2.0 0.00 0.00 0.00 100 965.9
20260501205654 50 0 0.0 2.0 0.00 0.00 0.00 100 965.9
20260501205554 50 0 0.0 2.0 0.00 0.00 0.00 100 965.9
20260501205451 50 0 0.0 2.0 0.00 0.00 0.00 100 966.0
20260501205248 50 0 0.0 2.0 0.00 0.00 0.00 100 965.9
20260501205044 50 0 0.0 4.0 0.00 0.00 0.00 100 966.0
20260501204943 50 0 0.0 4.0 0.00 0.00 0.00 100 965.9
20260501204841 49 0 0.0 4.0 0.00 0.00 0.00 100 966.0
20260501204638 49 0 0.0 2.0 0.00 0.00 0.00 100 966.0
20260501204434 49 0 0.0 2.0 0.00 0.00 0.00 100 965.9
20260501204334 49 0 0.0 2.0 0.00 0.00 0.00 100 965.9
20260501204232 49 0 0.0 2.0 0.00 0.00 0.00 100 965.9
20260501204028 49 0 0.0 3.0 0.00 0.00 0.00 100 965.9
20260501203825 49 0 0.0 3.0 0.00 0.00 0.00 100 965.9
20260501203724 49 0 0.0 2.0 0.00 0.00 0.00 100 965.9
20260501203622 49 0 0.0 2.0 0.00 0.00 0.00 100 965.9
20260501203419 50 0 0.0 2.0 0.00 0.00 0.00 100 965.9
20260501203216 50 0 0.0 2.0 0.00 0.00 0.00 100 966.0
20260501203115 50 0 0.0 2.0 0.00 0.00 0.00 100 966.0
20260501203013 50 0 0.0 2.0 0.00 0.00 0.00 100 966.0
20260501202810 50 0 0.0 4.0 0.00 0.00 0.00 100 966.0
20260501202606 50 0 0.0 4.0 0.00 0.00 0.00 100 965.9
20260501202505 50 0 0.0 4.0 0.00 0.00 0.00 100 966.0
20260501202403 50 0 0.0 2.0 0.00 0.00 0.00 100 966.0
20260501202200 50 0 0.0 2.0 0.00 0.00 0.00 100 965.9
20260501201957 50 0 0.0 3.0 0.00 0.00 0.00 100 966.0
20260501201857 50 0 0.0 3.0 0.00 0.00 0.00 100 966.0
20260501201754 50 0 0.0 3.0 0.00 0.00 0.00 100 966.0
20260501201552 50 0 0.0 3.0 0.00 0.00 0.00 100 966.0
20260501201349 50 0 0.0 2.0 0.00 0.00 0.00 100 966.0
20260501201248 50 0 0.0 2.0 0.00 0.00 0.00 100 965.9
20260501201145 50 0 0.0 2.0 0.00 0.00 0.00 100 965.9
20260501200942 50 0 0.0 2.0 0.00 0.00 0.00 100 965.9
20260501200738 50 0 0.0 3.0 0.00 0.00 0.00 100 966.0
20260501200637 50 0 1.0 3.0 0.00 0.00 0.00 100 966.0
20260501200535 50 0 1.0 3.0 0.00 0.00 0.00 100 966.0
20260501200329 51 0 1.0 3.0 0.00 0.00 0.00 100 966.0
20260501200126 51 0 1.0 3.0 0.00 0.00 0.00 100 965.9
20260501200025 51 0 1.0 3.0 0.00 0.00 0.00 100 965.9
20260501195922 51 0 1.0 3.0 0.00 0.00 0.00 100 965.9
20260501195719 51 0 1.0 3.0 0.00 0.00 0.00 100 965.9
20260501195516 51 0 1.0 3.0 0.00 0.00 0.00 100 966.0
20260501195416 51 0 1.0 3.0 0.00 0.00 0.00 100 966.0
20260501195313 51 0 1.0 2.0 0.00 0.00 0.00 100 965.9
20260501195110 51 0 1.0 3.0 0.00 0.00 0.00 100 965.9
20260501194907 51 0 1.0 3.0 0.00 0.00 0.00 100 965.8
20260501194806 51 0 1.0 3.0 0.00 0.00 0.00 100 965.8
20260501194703 51 0 1.0 3.0 0.00 0.00 0.00 100 965.9
20260501194500 51 0 1.0 3.0 0.00 0.00 0.00 100 965.9
20260501194257 51 0 1.0 3.0 0.00 0.00 0.00 100 965.8
20260501194156 51 0 1.0 4.0 0.00 0.00 0.00 100 965.9
20260501194054 51 0 1.0 4.0 0.00 0.00 0.00 100 965.8
20260501193851 52 0 1.0 4.0 0.00 0.00 0.00 100 965.8
20260501193648 52 0 1.0 4.0 0.00 0.00 0.00 100 965.8
20260501193547 52 0 1.0 4.0 0.00 0.00 0.00 100 965.8
20260501193444 52 0 1.0 4.0 0.00 0.00 0.00 100 965.8
20260501193241 52 0 1.0 4.0 0.00 0.00 0.00 100 965.8
20260501193038 52 0 1.0 3.0 0.00 0.00 0.00 100 965.8
20260501192937 52 0 1.0 4.0 0.00 0.00 0.00 100 965.8
20260501192834 52 0 1.0 3.0 0.00 0.00 0.00 100 965.8
20260501192632 52 0 1.0 3.0 0.00 0.00 0.00 100 965.7
20260501192429 52 0 1.0 3.0 0.00 0.00 0.00 100 965.7
20260501192328 52 0 1.0 3.0 0.00 0.00 0.00 100 965.7
20260501192225 53 0 1.0 3.0 0.00 0.00 0.00 100 965.7
20260501192022 53 0 1.0 3.0 0.00 0.00 0.00 100 965.7
20260501191819 53 0 1.0 3.0 0.00 0.00 0.00 100 965.7
20260501191718 53 0 1.0 3.0 0.00 0.00 0.00 100 965.7
20260501191615 53 0 1.0 3.0 0.00 0.00 0.00 100 965.7
20260501191413 53 0 0.0 3.0 0.00 0.00 0.00 100 965.7
20260501191210 53 0 0.0 3.0 0.00 0.00 0.00 100 965.7
20260501191109 53 0 0.0 3.0 0.00 0.00 0.00 100 965.7
20260501191006 53 0 0.0 3.0 0.00 0.00 0.00 100 965.8
20260501190804 53 0 0.0 3.0 0.00 0.00 0.00 100 965.7
20260501190600 53 0 1.0 2.0 0.00 0.00 0.00 100 965.7
20260501190459 53 0 1.0 2.0 0.00 0.00 0.00 100 965.6
20260501190357 53 0 0.0 2.0 0.00 0.00 0.00 100 965.7
20260501190138 53 0 0.0 2.0 0.00 0.00 0.00 100 965.6
20260501185935 53 0 0.0 2.0 0.00 0.00 0.00 100 965.7
20260501185834 53 0 0.0 2.0 0.00 0.00 0.00 100 965.7
20260501185732 53 0 0.0 2.0 0.00 0.00 0.00 100 965.6
20260501185529 54 0 0.0 2.0 0.00 0.00 0.00 100 965.7
20260501185326 54 0 0.0 1.0 0.00 0.00 0.00 100 965.6
20260501185225 54 0 0.0 2.0 0.00 0.00 0.00 100 965.6
20260501185122 55 0 0.0 2.0 0.00 0.00 0.00 100 965.7
20260501184919 55 226 1.0 2.0 0.00 0.00 0.00 100 965.7
20260501184716 55 248 1.0 2.0 0.00 0.00 0.00 100 965.7
20260501184616 56 260 1.0 2.0 0.00 0.00 0.00 100 965.7
20260501184513 56 261 1.0 2.0 0.00 0.00 0.00 100 965.7
20260501184310 56 266 2.0 4.0 0.00 0.00 0.00 100 965.7
20260501184107 57 275 3.0 4.0 0.00 0.00 0.00 100 965.6
20260501184006 57 281 2.0 4.0 0.00 0.00 0.00 100 965.6
20260501183904 57 283 2.0 4.0 0.00 0.00 0.00 100 965.6
20260501183700 57 282 2.0 4.0 0.00 0.00 0.00 100 965.6
20260501183458 56 282 2.0 4.0 0.00 0.00 0.00 100 965.7
20260501183357 57 282 2.0 4.0 0.00 0.00 0.00 100 965.6
20260501183255 56 284 2.0 4.0 0.00 0.00 0.00 100 965.6
20260501183051 56 276 2.0 3.0 0.00 0.00 0.00 100 965.6
20260501182848 56 272 2.0 5.0 0.00 0.00 0.00 100 965.5
20260501182747 56 264 2.0 5.0 0.00 0.00 0.00 100 965.5
20260501182645 56 271 3.0 5.0 0.00 0.00 0.00 100 965.5
20260501182442 56 282 3.0 4.0 0.00 0.00 0.00 100 965.4
20260501182238 56 290 3.0 4.0 0.00 0.00 0.00 100 965.4
20260501182137 56 292 3.0 4.0 0.00 0.00 0.00 100 965.4
20260501182034 56 300 3.0 4.0 0.00 0.00 0.00 100 965.4
20260501181831 57 327 2.0 3.0 0.00 0.00 0.00 100 965.5
20260501181628 57 353 2.0 3.0 0.00 0.00 0.00 100 965.4
20260501181527 57 356 2.0 2.0 0.00 0.00 0.00 100 965.4
20260501181425 57 4 2.0 2.0 0.00 0.00 0.00 100 965.3
20260501181222 57 21 2.0 4.0 0.00 0.00 0.00 100 965.3
20260501181019 57 34 2.0 4.0 0.00 0.00 0.00 100 965.2
20260501180919 57 44 2.0 4.0 0.00 0.00 0.00 100 965.3
20260501180816 57 44 2.0 4.0 0.00 0.00 0.00 100 965.3
20260501180613 57 49 2.0 4.0 0.00 0.00 0.00 100 965.2
20260501180410 58 51 2.0 5.0 0.00 0.00 0.00 100 965.3
20260501180309 58 51 2.0 5.0 0.00 0.00 0.00 100 965.2
20260501180207 58 49 3.0 5.0 0.00 0.00 0.00 100 965.2
20260501180000 58 42 3.0 5.0 0.00 0.00 0.00 100 965.3
20260501175757 58 27 3.0 5.0 0.00 0.00 0.00 100 965.2
20260501175656 58 25 3.0 4.0 0.00 0.00 0.00 100 965.2
20260501175554 58 23 3.0 4.0 0.00 0.00 0.00 100 965.2
20260501175350 58 26 3.0 6.0 0.00 0.00 0.00 100 965.1
20260501175146 59 37 5.0 7.0 0.00 0.00 0.00 100 965.1
20260501175046 59 42 4.0 7.0 0.00 0.00 0.00 100 965.2
20260501174944 59 49 4.0 7.0 0.00 0.00 0.00 100 965.1
20260501174741 58 52 3.0 7.0 0.00 0.00 0.00 100 965.1
20260501174539 58 47 2.0 3.0 0.00 0.00 0.00 100 965.1
20260501174438 58 46 2.0 3.0 0.00 0.00 0.00 100 965.1
20260501174336 58 40 2.0 3.0 0.00 0.00 0.00 100 965.1
20260501174132 58 9 2.0 4.0 0.00 0.00 0.00 100 965.0
20260501173929 58 3 3.0 6.0 0.00 0.00 0.00 100 965.0
20260501173828 59 1 4.0 6.0 0.00 0.00 0.00 100 965.0
20260501173726 59 3 4.0 6.0 0.00 0.00 0.00 100 965.0
20260501173523 59 3 5.0 8.0 0.00 0.00 0.00 100 964.9
20260501173320 59 7 4.0 8.0 0.00 0.00 0.00 100 964.9
20260501173219 59 13 4.0 8.0 0.00 0.00 0.00 100 964.9
20260501173117 59 26 4.0 6.0 0.00 0.00 0.00 100 965.1
20260501172914 59 21 4.0 6.0 0.00 0.00 0.00 100 965.0
20260501172711 59 1 5.0 8.0 0.00 0.00 0.00 100 964.9
20260501172610 59 346 5.0 8.0 0.00 0.00 0.00 100 964.9
20260501172508 59 343 5.0 8.0 0.00 0.00 0.00 100 964.9
20260501172306 59 337 6.0 9.0 0.00 0.00 0.00 100 964.9
20260501172101 59 333 6.0 9.0 0.00 0.00 0.00 100 964.8
20260501172001 59 329 6.0 10.0 0.00 0.00 0.00 100 964.8
20260501171859 59 327 6.0 10.0 0.00 0.00 0.00 100 964.9
20260501171656 59 329 6.0 10.0 0.00 0.00 0.00 100 964.8
20260501171452 59 340 5.0 9.0 0.00 0.00 0.00 100 964.8
20260501171352 59 337 5.0 8.0 0.00 0.00 0.00 100 964.9
20260501171249 59 336 5.0 8.0 0.00 0.00 0.00 100 964.7
20260501171046 60 332 5.0 9.0 0.00 0.00 0.00 100 964.9
20260501170843 60 331 5.0 9.0 0.00 0.00 0.00 100 964.7
20260501170742 60 331 4.0 8.0 0.00 0.00 0.00 100 964.7
20260501170640 60 334 5.0 10.0 0.00 0.00 0.00 100 964.8
20260501170437 60 340 7.0 11.0 0.00 0.00 0.00 100 964.7
20260501170234 60 343 8.0 13.0 0.00 0.00 0.00 100 964.8
20260501170134 60 346 8.0 13.0 0.00 0.00 0.00 100 964.8
20260501170031 60 350 7.0 13.0 0.00 0.00 0.00 100 964.7
20260501165825 60 349 7.0 10.0 0.00 0.00 0.00 100 965.0
20260501165622 61 350 7.0 10.0 0.00 0.00 0.00 100 964.9
20260501165522 61 351 7.0 10.0 0.00 0.00 0.00 100 964.9
20260501165419 60 354 7.0 11.0 0.00 0.00 0.00 100 964.8
20260501165216 60 357 7.0 11.0 0.00 0.00 0.00 100 964.8
20260501165012 60 352 7.0 10.0 0.00 0.00 0.00 100 964.9
20260501164911 60 350 7.0 10.0 0.00 0.00 0.00 100 964.9
20260501164809 60 346 7.0 10.0 0.00 0.00 0.00 100 964.8
20260501164606 60 344 7.0 12.0 0.00 0.00 0.00 100 964.8
20260501164403 60 348 7.0 12.0 0.00 0.00 0.00 100 964.8
20260501164302 60 355 7.0 12.0 0.00 0.00 0.00 100 964.9
20260501164200 60 358 8.0 12.0 0.00 0.00 0.00 100 964.9
20260501163957 60 1 8.0 12.0 0.00 0.00 0.00 100 964.9
20260501163754 60 3 7.0 10.0 0.00 0.00 0.00 100 965.0
20260501163653 60 3 7.0 10.0 0.00 0.00 0.00 100 964.9
20260501163550 60 2 6.0 9.0 0.00 0.00 0.00 100 964.9
20260501163346 60 358 6.0 9.0 0.00 0.00 0.00 100 964.9
20260501163143 60 346 6.0 8.0 0.00 0.00 0.00 100 964.9
20260501163042 60 344 5.0 9.0 0.00 0.00 0.00 100 964.8
20260501162940 60 345 5.0 8.0 0.00 0.00 0.00 100 964.8
20260501162737 60 347 5.0 8.0 0.00 0.00 0.00 100 964.8
20260501162534 60 345 5.0 9.0 0.00 0.00 0.00 100 964.9
20260501162434 60 342 6.0 9.0 0.00 0.00 0.00 100 964.9
20260501162331 60 341 6.0 9.0 0.00 0.00 0.00 100 964.9
20260501162119 60 338 6.0 10.0 0.00 0.00 0.00 100 964.9
20260501161915 60 340 6.0 10.0 0.00 0.00 0.00 100 965.0
20260501161814 60 340 7.0 10.0 0.00 0.00 0.00 100 964.9
20260501161712 60 341 7.0 11.0 0.00 0.00 0.00 100 964.9
20260501161509 60 338 6.0 11.0 0.00 0.00 0.00 100 965.0
20260501161305 60 335 6.0 11.0 0.00 0.00 0.00 100 964.9
20260501161204 60 336 6.0 11.0 0.00 0.00 0.00 100 965.0
20260501161102 60 337 6.0 11.0 0.00 0.00 0.00 100 965.0
20260501160858 60 342 7.0 12.0 0.00 0.00 0.00 100 965.0
20260501160655 60 340 8.0 12.0 0.00 0.00 0.00 100 965.1
20260501160555 60 338 8.0 12.0 0.00 0.00 0.00 100 965.1
20260501160452 60 335 8.0 12.0 0.00 0.00 0.00 100 965.0
20260501160249 60 328 7.0 14.0 0.00 0.00 0.00 100 964.9
20260501160046 60 334 8.0 14.0 0.00 0.00 0.00 100 965.0
20260501155945 60 335 8.0 14.0 0.00 0.00 0.00 100 965.1
20260501155843 60 345 8.0 14.0 0.00 0.00 0.00 100 965.1
20260501155636 60 346 9.0 13.0 0.00 0.00 0.00 100 965.1
20260501155433 60 346 8.0 15.0 0.00 0.00 0.00 100 965.2
20260501155332 60 349 7.0 15.0 0.00 0.00 0.00 100 965.1
20260501155230 60 355 8.0 11.0 0.00 0.00 0.00 100 965.1
20260501155027 61 358 7.0 11.0 0.00 0.00 0.00 100 965.2
20260501154824 60 342 6.0 10.0 0.00 0.00 0.00 100 965.2
20260501154723 60 343 6.0 10.0 0.00 0.00 0.00 100 965.1
20260501154621 60 344 6.0 10.0 0.00 0.00 0.00 100 965.1
20260501154418 60 354 7.0 12.0 0.00 0.00 0.00 100 965.2
20260501154215 60 349 8.0 13.0 0.00 0.00 0.00 100 965.2
20260501154114 60 342 8.0 12.0 0.00 0.00 0.00 100 965.2
20260501154012 60 336 8.0 12.0 0.00 0.00 0.00 100 965.2
20260501153808 60 327 7.0 12.0 0.00 0.00 0.00 100 965.1
20260501153605 60 331 7.0 11.0 0.00 0.00 0.00 100 965.2
20260501153504 60 336 7.0 11.0 0.00 0.00 0.00 100 965.1
20260501153402 60 342 7.0 13.0 0.00 0.00 0.00 100 965.2
20260501153159 60 342 8.0 13.0 0.00 0.00 0.00 100 965.2
20260501152956 60 345 8.0 13.0 0.00 0.00 0.00 100 965.2
20260501152855 60 349 8.0 13.0 0.00 0.00 0.00 100 965.2
20260501152753 60 349 8.0 13.0 0.00 0.00 0.00 100 965.3
20260501152550 60 342 7.0 11.0 0.00 0.00 0.00 100 965.2
20260501152346 60 330 9.0 15.0 0.00 0.00 0.00 100 965.3
20260501152246 60 327 9.0 15.0 0.00 0.00 0.00 100 965.2